timestamp,wind_dir_avg,wind_spd_avg,wind_spd_max_dir,wind_spd_gust,battery_voltage,lat,long
2021-03-22 00:04:01+00:00,228.0,7.08,236.0,8.39,12.57,47.59359,-54.27349
2021-03-22 00:14:01+00:00,226.0,8.77,227.0,9.55,12.49,47.59359,-54.27349
2021-03-22 00:24:01+00:00,228.0,7.65,230.0,8.5,12.49,47.59359,-54.27349
2021-03-22 00:34:01+00:00,230.0,9.16,225.0,11.61,12.49,47.59359,-54.27349
2021-03-22 00:44:01+00:00,222.0,8.28,226.0,9.67,12.49,47.59359,-54.27349
2021-03-22 00:54:01+00:00,227.0,9.02,223.0,10.47,12.49,47.59359,-54.27349
2021-03-22 01:04:01+00:00,228.0,7.92,231.0,9.03,12.49,47.59359,-54.27349
2021-03-22 01:14:01+00:00,230.0,8.03,230.0,10.02,12.49,47.59359,-54.27349
2021-03-22 01:24:01+00:00,231.0,7.6,230.0,8.67,12.49,47.59359,-54.27349
2021-03-22 01:34:01+00:00,232.0,8.71,230.0,10.16,12.49,47.59359,-54.27349
2021-03-22 01:44:01+00:00,229.0,7.54,233.0,8.54,12.49,47.59359,-54.27349
2021-03-22 01:54:01+00:00,231.0,7.96,238.0,9.19,12.49,47.59359,-54.27349
2021-03-22 02:04:01+00:00,232.0,7.93,233.0,8.64,12.49,47.59359,-54.27349
2021-03-22 02:14:01+00:00,227.0,8.36,230.0,9.28,12.41,47.59359,-54.27349
2021-03-22 02:24:01+00:00,230.0,7.91,230.0,9.16,12.41,47.59359,-54.27349
2021-03-22 02:34:01+00:00,231.0,7.81,232.0,8.85,12.41,47.59359,-54.27349
2021-03-22 02:44:01+00:00,233.0,7.79,241.0,8.84,12.41,47.59359,-54.27349
2021-03-22 02:54:01+00:00,228.0,6.88,229.0,8.15,12.41,47.59359,-54.27349
2021-03-22 03:04:01+00:00,234.0,7.64,242.0,8.93,12.41,47.59359,-54.27349
2021-03-22 03:14:01+00:00,224.0,6.68,229.0,7.43,12.41,47.59359,-54.27349
2021-03-22 03:24:01+00:00,228.0,6.36,231.0,7.66,12.41,47.59359,-54.27349
2021-03-22 03:34:01+00:00,227.0,7.6,233.0,9.38,12.41,47.59359,-54.27349
2021-03-22 03:44:01+00:00,230.0,7.34,226.0,8.5,12.41,47.59359,-54.27349
2021-03-22 03:54:01+00:00,234.0,7.42,237.0,9.6,12.41,47.59359,-54.27349
2021-03-22 04:04:01+00:00,228.0,8.91,225.0,9.86,12.41,47.59359,-54.27349
2021-03-22 04:14:01+00:00,227.0,8.33,229.0,9.82,12.41,47.59359,-54.27349
2021-03-22 04:24:01+00:00,222.0,8.5,225.0,9.46,12.41,47.59359,-54.27349
2021-03-22 04:34:01+00:00,225.0,7.74,219.0,9.05,12.41,47.59359,-54.27349
2021-03-22 04:44:01+00:00,227.0,8.78,220.0,10.37,12.41,47.59359,-54.27349
2021-03-22 04:54:01+00:00,226.0,8.68,221.0,10.45,12.41,47.59359,-54.27349
2021-03-22 05:04:01+00:00,228.0,7.95,229.0,9.78,12.41,47.59359,-54.27349
2021-03-22 05:14:01+00:00,231.0,7.46,233.0,8.96,12.41,47.59359,-54.27349
2021-03-22 05:24:01+00:00,227.0,8.96,225.0,10.25,12.41,47.59359,-54.27349
2021-03-22 05:34:01+00:00,227.0,8.19,231.0,9.17,12.41,47.59359,-54.27349
2021-03-22 05:44:01+00:00,226.0,9.43,225.0,10.48,12.41,47.59359,-54.27349
2021-03-22 05:54:01+00:00,224.0,10.5,220.0,11.87,12.41,47.59359,-54.27349
2021-03-22 06:04:01+00:00,227.0,9.24,219.0,11.7,12.41,47.59359,-54.27349
2021-03-22 06:14:01+00:00,218.0,7.79,217.0,8.96,12.41,47.59359,-54.27349
2021-03-22 06:24:01+00:00,224.0,9.21,226.0,10.54,12.41,47.59359,-54.27349
2021-03-22 06:34:01+00:00,221.0,8.43,222.0,9.84,12.41,47.59359,-54.27349
2021-03-22 06:44:01+00:00,217.0,8.69,213.0,10.39,12.41,47.59359,-54.27349
2021-03-22 06:54:01+00:00,219.0,8.24,223.0,9.21,12.41,47.59359,-54.27349
2021-03-22 07:04:01+00:00,221.0,8.82,229.0,10.71,12.41,47.59359,-54.27349
2021-03-22 07:14:01+00:00,225.0,8.52,219.0,9.61,12.33,47.59359,-54.27349
2021-03-22 07:24:01+00:00,220.0,8.26,218.0,9.37,12.33,47.59359,-54.27349
2021-03-22 07:34:01+00:00,219.0,8.0,220.0,9.33,12.33,47.59359,-54.27349
2021-03-22 07:44:01+00:00,221.0,7.36,221.0,8.04,12.33,47.59359,-54.27349
2021-03-22 07:54:01+00:00,219.0,8.2,220.0,9.12,12.33,47.59359,-54.27349
2021-03-22 08:04:01+00:00,225.0,7.57,224.0,8.91,12.33,47.59359,-54.27349
2021-03-22 08:14:01+00:00,227.0,8.54,222.0,10.1,12.33,47.59359,-54.27349
2021-03-22 08:24:01+00:00,226.0,8.88,221.0,10.07,12.33,47.59359,-54.27349
2021-03-22 08:34:01+00:00,229.0,7.73,222.0,9.08,12.33,47.59359,-54.27349
2021-03-22 08:44:01+00:00,221.0,7.02,222.0,7.76,12.33,47.59359,-54.27349
2021-03-22 08:54:01+00:00,219.0,6.96,217.0,8.39,12.33,47.59359,-54.27349
2021-03-22 09:04:01+00:00,216.0,6.95,214.0,7.62,12.33,47.59359,-54.27349
2021-03-22 09:14:01+00:00,218.0,6.62,228.0,7.51,12.33,47.59359,-54.27349
2021-03-22 09:24:01+00:00,223.0,7.03,226.0,7.62,12.33,47.59359,-54.27349
2021-03-22 09:34:01+00:00,225.0,7.67,234.0,8.78,12.33,47.59359,-54.27349
2021-03-22 09:44:01+00:00,226.0,7.16,227.0,7.95,12.33,47.59359,-54.27349
2021-03-22 09:54:01+00:00,228.0,6.83,228.0,7.42,12.33,47.59359,-54.27349
2021-03-22 10:04:01+00:00,232.0,5.56,228.0,6.36,12.33,47.59359,-54.27349
2021-03-22 10:14:01+00:00,241.0,6.73,237.0,7.84,12.33,47.59359,-54.27349
2021-03-22 10:24:01+00:00,245.0,7.94,247.0,8.59,12.33,47.59359,-54.27349
2021-03-22 10:34:01+00:00,252.0,7.88,251.0,8.41,12.33,47.59359,-54.27349
2021-03-22 10:44:01+00:00,250.0,7.34,248.0,8.03,12.33,47.59359,-54.27349
2021-03-22 10:54:01+00:00,232.0,6.11,237.0,6.98,12.33,47.59359,-54.27349
2021-03-22 11:04:01+00:00,232.0,4.41,229.0,5.51,12.33,47.59359,-54.27349
2021-03-22 11:14:01+00:00,214.0,5.61,217.0,6.61,13.84,47.59359,-54.27349
2021-03-22 11:24:01+00:00,214.0,7.62,216.0,8.89,13.84,47.59359,-54.27349
2021-03-22 11:34:01+00:00,229.0,6.91,229.0,8.0,13.84,47.59359,-54.27349
2021-03-22 11:44:01+00:00,224.0,6.27,227.0,6.97,13.84,47.59359,-54.27349
2021-03-22 11:54:01+00:00,232.0,7.36,232.0,8.06,13.84,47.59359,-54.27349
2021-03-22 12:04:01+00:00,225.0,7.36,227.0,8.74,13.84,47.59359,-54.27349
2021-03-22 12:14:01+00:00,217.0,7.05,217.0,7.87,14.24,47.59359,-54.27349
2021-03-22 12:24:01+00:00,212.0,6.26,213.0,6.85,14.24,47.59359,-54.27349
2021-03-22 12:34:01+00:00,220.0,6.01,215.0,6.83,14.24,47.59359,-54.27349
2021-03-22 12:44:01+00:00,238.0,7.98,238.0,8.47,14.24,47.59359,-54.27349
2021-03-22 12:54:01+00:00,232.0,7.92,233.0,8.87,14.24,47.59359,-54.27349
2021-03-22 13:04:01+00:00,231.0,7.36,231.0,8.23,14.24,47.59359,-54.27349
2021-03-22 13:14:01+00:00,233.0,6.91,233.0,8.01,13.76,47.59359,-54.27349
2021-03-22 13:24:01+00:00,230.0,6.91,228.0,7.74,13.76,47.59359,-54.27349
2021-03-22 13:34:01+00:00,225.0,6.44,226.0,7.83,13.76,47.59359,-54.27349
2021-03-22 13:44:01+00:00,221.0,8.29,223.0,8.81,13.76,47.59359,-54.27349
2021-03-22 13:54:01+00:00,225.0,9.15,228.0,9.82,13.76,47.59359,-54.27349
2021-03-22 14:04:01+00:00,226.0,8.02,226.0,9.2,13.76,47.59359,-54.27349
2021-03-22 15:14:01+00:00,216.0,7.32,218.0,7.87,14.24,47.59359,-54.27349
2021-03-22 15:24:01+00:00,214.0,6.77,216.0,7.31,14.24,47.59359,-54.27349
2021-03-22 15:34:01+00:00,214.0,6.27,216.0,6.93,14.24,47.59359,-54.27349
2021-03-22 15:44:01+00:00,212.0,5.88,212.0,6.28,14.24,47.59359,-54.27349
2021-03-22 15:54:01+00:00,217.0,6.2,217.0,7.04,14.24,47.59359,-54.27349
2021-03-22 16:04:01+00:00,214.0,7.32,213.0,8.21,14.24,47.59359,-54.27349
2021-03-22 16:14:01+00:00,213.0,8.84,214.0,9.58,14.32,47.59359,-54.27349
2021-03-22 16:24:01+00:00,211.0,9.52,208.0,10.49,14.32,47.59359,-54.27349
2021-03-22 16:34:01+00:00,210.0,9.21,210.0,10.1,14.32,47.59359,-54.27349
2021-03-22 16:44:01+00:00,209.0,9.0,209.0,10.07,14.32,47.59359,-54.27349
2021-03-22 16:54:01+00:00,206.0,9.1,203.0,10.38,14.32,47.59359,-54.27349
2021-03-22 17:04:01+00:00,207.0,8.28,210.0,9.09,14.32,47.59359,-54.27349
2021-03-22 17:14:01+00:00,206.0,8.39,208.0,9.32,13.92,47.59359,-54.27349
2021-03-22 17:24:01+00:00,211.0,8.98,212.0,9.75,13.92,47.59359,-54.27349
2021-03-22 17:34:01+00:00,215.0,8.76,214.0,9.25,13.92,47.59359,-54.27349
2021-03-22 17:44:01+00:00,214.0,8.9,214.0,9.51,13.92,47.59359,-54.27349
2021-03-22 17:54:01+00:00,219.0,7.53,220.0,9.26,13.92,47.59359,-54.27349
2021-03-22 18:04:01+00:00,219.0,7.8,223.0,8.75,13.92,47.59359,-54.27349
2021-03-22 18:14:01+00:00,221.0,8.47,221.0,9.1,14.0,47.59359,-54.27349
2021-03-22 18:24:01+00:00,228.0,8.73,230.0,9.42,14.0,47.59359,-54.27349
2021-03-22 18:34:01+00:00,222.0,8.26,219.0,8.98,14.0,47.59359,-54.27349
2021-03-22 18:44:01+00:00,220.0,8.53,220.0,9.17,14.0,47.59359,-54.27349
2021-03-22 18:54:01+00:00,225.0,7.9,226.0,8.67,14.0,47.59359,-54.27349
2021-03-22 19:04:01+00:00,225.0,8.52,224.0,9.69,14.0,47.59359,-54.27349
2021-03-22 19:14:01+00:00,223.0,7.55,220.0,8.23,13.92,47.59359,-54.27349
2021-03-22 19:24:01+00:00,226.0,6.55,228.0,7.28,13.92,47.59359,-54.27349
2021-03-22 19:34:01+00:00,223.0,5.24,222.0,5.77,13.92,47.59359,-54.27349
2021-03-22 19:44:01+00:00,218.0,5.84,222.0,6.45,13.92,47.59359,-54.27349
2021-03-22 19:54:01+00:00,224.0,4.92,231.0,5.84,13.92,47.59359,-54.27349
2021-03-22 20:04:01+00:00,232.0,5.03,236.0,5.96,13.92,47.59359,-54.27349
2021-03-22 20:14:01+00:00,230.0,5.81,231.0,6.48,14.0,47.59359,-54.27349
2021-03-22 20:24:01+00:00,236.0,6.3,244.0,7.78,14.0,47.59359,-54.27349
2021-03-22 20:34:01+00:00,238.0,7.14,230.0,9.54,14.0,47.59359,-54.27349
2021-03-22 20:44:01+00:00,234.0,8.26,239.0,10.09,14.0,47.59359,-54.27349
2021-03-22 20:54:01+00:00,230.0,9.26,232.0,10.2,14.0,47.59359,-54.27349
2021-03-22 21:04:01+00:00,231.0,8.72,230.0,9.84,14.0,47.59359,-54.27349
2021-03-22 21:14:01+00:00,233.0,8.86,233.0,9.83,13.6,47.59359,-54.27349
2021-03-22 21:24:01+00:00,224.0,8.39,221.0,9.45,13.6,47.59359,-54.27349
2021-03-22 21:34:01+00:00,229.0,7.94,229.0,8.83,13.6,47.59359,-54.27349
2021-03-22 21:44:01+00:00,224.0,8.16,223.0,8.9,13.6,47.59359,-54.27349
2021-03-22 21:54:01+00:00,222.0,7.7,225.0,8.73,13.6,47.59359,-54.27349
2021-03-22 22:04:01+00:00,217.0,5.84,215.0,6.78,13.6,47.59359,-54.27349
2021-03-22 22:14:01+00:00,214.0,5.34,222.0,6.53,12.97,47.59359,-54.27349
2021-03-22 22:24:01+00:00,215.0,5.67,217.0,6.76,12.97,47.59359,-54.27349
2021-03-22 22:34:01+00:00,235.0,6.64,240.0,9.05,12.97,47.59359,-54.27349
2021-03-22 22:44:01+00:00,229.0,5.96,225.0,7.56,12.97,47.59359,-54.27349
2021-03-22 22:54:01+00:00,242.0,7.43,241.0,8.51,12.97,47.59359,-54.27349
2021-03-22 23:04:01+00:00,231.0,6.2,234.0,7.16,12.97,47.59359,-54.27349
2021-03-22 23:14:01+00:00,238.0,6.39,234.0,7.16,12.57,47.59359,-54.27349
2021-03-22 23:24:01+00:00,236.0,6.89,233.0,8.48,12.57,47.59359,-54.27349
2021-03-22 23:34:01+00:00,232.0,5.86,236.0,7.07,12.57,47.59359,-54.27349
2021-03-22 23:44:01+00:00,244.0,5.97,241.0,7.75,12.57,47.59359,-54.27349
2021-03-22 23:54:01+00:00,242.0,6.19,262.0,7.16,12.57,47.59359,-54.27349
